Theta_e
327 321 310 302 294 294 289 291 294 302 305 309 314 310 311 313 307 298 323 333 333 333 337 338 340 337 335 333 331 330 330 330 329 329 328 328 327 328 327 330 332 333 332 331 332 330 329 330 329
324 320 307 297 290 287 290 294 295 304 312 314 314 312 311 309 318 321 324 334 336 335 335 336 337 336 333 331 330 329 328 328 328 327 327 326 327 326 328 330 331 332 333 332 331 330 328 328 328
318 311 304 292 287 287 291 297 304 309 313 309 312 315 314 313 320 322 328 335 336 334 334 334 336 334 332 330 329 327 327 327 327 326 326 326 326 327 329 329 329 331 332 331 331 329 328 328 328
314 310 300 291 286 290 296 298 304 307 309 315 314 313 318 327 324 328 334 335 333 331 332 334 336 333 330 328 327 326 326 325 325 325 325 324 325 327 327 329 329 330 331 331 330 330 329 329 327
313 304 293 288 288 291 293 298 303 304 307 308 309 311 316 328 331 332 333 333 330 329 331 332 334 331 328 327 326 326 324 324 323 323 324 324 325 326 328 328 329 328 329 330 329 330 329 328 326
308 301 290 287 288 292 296 299 306 307 308 309 311 312 317 329 328 330 332 331 330 326 326 326 326 328 327 325 325 323 323 323 323 323 323 324 323 323 326 326 328 329 328 329 328 328 327 325 324
306 296 290 288 289 291 295 300 301 305 306 307 311 311 319 322 326 328 326 325 324 323 321 321 321 323 324 325 324 321 322 322 322 322 321 321 321 322 323 324 325 328 327 327 326 325 325 324 325
307 299 292 289 289 291 296 302 305 307 303 309 309 309 314 322 324 324 323 321 319 317 316 314 314 313 314 315 320 321 320 320 320 319 318 316 316 317 319 320 323 325 326 326 325 324 324 323 323
307 296 291 292 290 291 295 302 306 309 307 308 308 311 321 323 323 321 320 318 316 314 313 311 309 310 311 312 313 315 317 318 316 314 315 311 309 310 311 317 320 321 323 325 325 323 322 320 320
304 297 295 295 291 293 296 300 304 305 304 309 314 320 322 322 321 319 318 316 317 315 314 311 307 309 310 314 310 310 311 309 308 308 308 308 308 309 310 310 314 316 316 322 324 322 319 314 311
301 300 294 294 295 296 297 298 302 304 300 306 312 316 319 320 320 319 319 318 318 318 316 311 308 308 310 309 308 308 308 307 307 307 307 307 307 306 306 306 307 307 309 309 313 312 311 310 311
297 298 296 297 296 296 298 301 298 297 299 305 319 320 320 319 318 319 318 318 318 316 312 312 309 309 308 308 307 308 307 306 306 306 307 306 305 305 305 306 306 306 307 307 309 310 310 310 308
296 296 297 297 297 296 298 297 299 297 302 310 315 317 318 319 318 318 319 320 318 313 311 310 311 309 308 307 307 307 306 306 306 307 309 308 306 305 305 306 306 306 307 307 308 309 309 309 309
297 296 296 296 296 295 295 294 295 298 302 310 314 313 313 316 315 316 317 318 317 312 311 311 311 309 308 306 307 307 306 306 307 308 309 310 309 307 307 307 308 308 308 307 310 311 311 309 310
299 294 296 295 295 294 295 292 293 298 303 308 309 310 311 312 312 312 317 318 318 312 311 310 311 309 307 306 307 306 307 307 307 307 307 308 309 308 307 306 307 308 309 308 310 312 312 311 308
297 296 292 295 294 294 294 291 292 299 301 302 305 306 303 304 308 310 313 317 313 309 309 311 312 308 306 306 306 307 306 305 304 304 303 304 306 305 304 303 303 304 310 309 309 311 310 308 305
296 290 291 294 297 293 292 291 294 297 299 299 299 300 301 302 303 303 306 308 310 308 307 308 309 309 308 308 307 305 304 303 302 301 300 301 303 304 302 302 302 302 303 306 308 308 307 304 302
290 291 291 291 295 292 289 290 293 296 298 299 299 299 300 301 302 303 303 304 305 308 308 307 309 310 309 309 308 304 301 300 300 298 298 299 300 301 301 300 300 301 301 301 304 306 307 304 301
294 292 290 291 294 291 291 291 293 294 294 295 297 298 299 301 303 303 302 303 302 302 304 307 308 309 309 307 305 303 299 300 300 297 297 296 297 299 299 299 299 299 299 299 300 304 302 299 300
294 291 289 292 293 291 290 290 295 295 294 297 297 297 299 300 299 300 301 301 301 302 302 304 307 309 309 308 307 306 305 303 301 298 294 294 295 297 298 298 298 297 296 297 299 302 301 300 300
289 289 287 289 291 289 287 285 288 292 295 296 296 298 298 299 299 299 299 300 300 300 301 302 304 307 307 308 308 305 303 301 298 297 294 293 293 295 296 296 296 295 294 294 294 297 300 298 294
285 290 291 290 286 281 288 279 286 288 290 293 295 295 296 296 298 299 299 298 299 300 300 301 302 304 305 307 306 303 302 300 300 298 294 291 291 292 293 294 293 292 291 289 290 292 297 297 293
288 290 288 288 285 282 283 280 285 287 288 290 293 294 296 296 297 299 299 300 300 299 299 299 300 301 303 304 306 304 304 304 300 295 292 290 289 291 292 292 291 289 288 288 288 288 291 293 293
292 288 286 285 282 274 279 279 282 285 288 291 292 294 295 295 295 297 298 298 297 297 297 298 298 299 300 302 304 305 305 301 296 294 291 288 288 288 290 291 290 289 288 287 286 286 286 287 288
289 284 276 273 273 274 281 279 283 288 291 291 292 293 293 294 294 295 295 295 295 295 296 296 296 297 297 297 299 304 305 301 298 295 292 289 287 287 287 289 288 287 287 287 286 285 284 284 283
285 285 278 272 273 276 282 278 283 289 290 291 291 291 292 292 293 293 294 294 294 294 294 295 295 295 295 295 295 297 303 301 299 296 293 291 287 287 287 288 288 287 286 286 285 284 283 282 281
285 282 286 281 274 275 278 281 286 287 288 288 288 289 290 290 291 292 292 293 293 293 293 294 294 293 293 294 293 293 295 298 297 295 293 290 288 287 287 287 286 285 285 285 284 282 281 280 280
287 289 281 280 269 271 276 278 279 283 286 287 288 288 288 289 290 291 291 291 291 292 292 292 292 293 293 292 291 292 291 292 294 292 290 289 286 286 285 285 285 284 284 283 282 281 282 280 279
284 283 284 283 280 276 273 276 284 285 286 287 287 287 287 288 289 289 290 290 290 290 290 291 291 291 290 290 289 289 288 289 290 290 289 287 285 285 284 284 284 283 282 282 281 282 281 280 279
286 285 285 279 277 279 279 279 286 286 286 286 288 287 288 289 290 291 290 289 289 289 288 289 290 289 290 289 288 287 287 287 286 286 286 285 284 284 284 284 283 282 281 281 281 281 281 279 278
Wind_Speed
8 8 2 5 5 5 1 0 2 4 3 1 3 6 9 3 2 4 0 2 10 7 6 11 12 11 9 9 9 9 9 9 9 10 10 10 10 11 11 11 11 13 14 13 14 13 14 14 13
6 5 4 3 7 4 2 3 4 3 6 7 6 4 6 3 3 6 5 7 11 9 6 8 11 10 10 10 9 9 9 9 9 10 9 9 10 11 11 11 13 13 14 13 13 14 14 13 13
6 2 3 5 4 4 4 2 6 5 6 2 5 4 4 3 4 5 6 10 11 8 7 9 10 10 10 10 9 9 9 9 9 10 10 9 10 11 11 12 12 12 13 13 13 13 13 13 15
3 3 5 6 3 2 3 4 5 5 4 6 4 8 2 2 4 7 12 12 11 8 7 9 11 10 10 10 10 10 9 9 9 9 10 9 9 10 10 11 11 12 13 13 13 14 15 15 17
3 3 5 4 2 2 2 3 5 4 3 3 1 6 4 2 11 14 11 10 13 8 7 7 10 10 10 10 10 10 9 8 8 8 9 10 10 10 11 11 11 10 12 13 14 15 16 15 15
3 3 5 3 3 2 3 3 5 3 2 2 6 6 3 3 9 7 10 10 8 10 7 7 9 10 10 9 11 9 8 8 9 8 8 9 9 10 10 11 12 12 12 13 15 16 15 15 14
5 4 5 5 5 3 3 3 4 5 5 2 0 6 5 3 3 10 10 9 9 7 7 5 5 7 9 9 9 9 9 8 8 8 7 8 8 9 10 11 12 12 11 12 14 13 14 16 17
4 5 4 2 5 3 1 3 2 4 2 1 2 6 8 5 6 10 9 8 7 6 5 4 5 6 5 5 9 9 9 8 8 9 9 8 9 9 10 9 11 11 12 12 14 13 14 14 16
2 5 3 5 6 5 1 4 2 1 6 2 2 3 5 12 10 10 9 6 4 4 4 4 5 4 5 5 5 7 8 9 8 7 8 6 4 5 6 8 11 11 11 10 13 13 11 13 16
2 5 4 1 1 5 3 4 4 4 3 3 3 3 11 11 11 11 10 7 5 5 4 4 4 4 5 4 5 4 4 4 4 4 4 3 4 4 4 6 10 11 10 9 12 12 11 10 5
3 4 2 2 2 3 4 4 2 8 2 4 9 12 12 9 8 8 6 7 8 6 4 5 5 4 5 4 3 2 2 2 3 4 3 3 3 3 3 3 3 4 7 4 5 6 4 7 7
9 6 3 2 5 3 4 5 3 2 1 5 11 11 8 11 11 10 8 7 8 7 5 5 6 6 5 3 3 3 2 2 2 3 4 3 2 3 3 3 4 4 3 4 4 4 5 9 12
8 2 5 3 8 5 5 4 3 1 3 4 10 8 9 8 6 4 5 4 4 7 7 6 5 6 5 5 3 3 3 2 2 3 4 3 3 3 2 3 3 3 3 4 4 5 5 8 9
3 6 3 5 5 4 3 1 1 2 0 5 7 7 6 8 8 5 5 5 6 4 7 7 5 6 6 5 4 4 3 3 2 3 3 4 3 2 3 2 3 3 3 3 3 4 7 7 7
4 6 4 7 4 3 1 1 3 4 5 6 5 4 4 6 6 7 9 9 8 5 5 6 7 6 6 6 4 4 3 3 3 3 5 5 4 4 3 3 4 3 2 4 3 4 7 9 10
5 5 4 3 4 3 2 6 1 5 8 8 6 5 6 6 5 3 2 3 4 4 4 5 5 6 6 6 4 3 3 3 3 3 3 5 5 4 4 3 3 3 3 3 3 4 6 8 9
6 3 2 1 3 3 3 5 3 3 4 7 8 7 7 7 8 6 4 4 4 4 5 5 5 7 6 6 5 4 4 3 3 3 3 4 4 4 3 2 1 2 2 2 2 2 8 8 9
4 5 2 3 5 3 2 9 6 6 8 9 8 9 10 11 13 8 7 6 6 5 5 5 5 7 7 5 5 3 2 2 1 3 3 3 3 3 2 2 2 2 2 3 2 4 6 8 11
7 5 4 1 3 2 5 7 11 7 7 10 12 11 12 14 8 8 9 7 6 6 6 7 7 8 7 5 3 2 3 2 1 1 4 3 2 2 1 1 2 2 1 2 2 3 11 9 10
6 6 3 1 2 3 4 12 17 9 9 14 16 15 16 10 7 7 8 8 9 8 7 6 6 8 8 6 3 3 3 2 2 1 2 3 1 1 1 2 2 2 2 2 3 3 6 7 6
4 6 2 3 3 1 7 8 5 5 6 6 9 8 9 12 12 9 10 12 8 9 9 7 7 7 7 7 4 3 4 2 2 2 1 1 1 1 1 2 3 2 2 3 2 3 4 7 2
4 1 4 2 2 2 3 7 7 4 8 6 9 8 10 9 9 8 10 10 12 13 7 7 7 7 6 7 6 6 5 4 4 3 2 2 1 2 2 2 3 3 2 4 4 3 3 2 4
3 1 2 2 3 3 3 3 10 5 7 5 5 7 8 9 10 12 12 13 11 8 9 7 8 7 6 7 8 7 5 3 2 2 4 3 1 2 2 2 2 3 3 3 3 4 5 3 3
5 3 5 4 3 3 2 4 9 3 3 6 5 6 6 6 8 8 5 5 6 6 7 6 7 6 6 6 7 9 10 6 4 4 4 3 2 2 3 1 1 2 3 4 4 4 5 5 4
5 5 3 6 5 4 1 1 13 8 10 6 10 11 7 8 7 4 5 5 4 7 6 6 7 7 6 6 6 6 8 8 9 7 5 5 4 3 4 3 3 2 2 2 3 4 4 4 4
2 4 5 4 2 4 1 6 9 5 5 7 7 7 8 7 6 5 5 5 6 7 7 7 7 7 6 6 7 6 5 5 6 7 5 5 5 4 5 4 4 4 2 1 1 2 3 4 4
2 2 1 5 2 2 4 7 10 4 3 7 8 9 10 10 9 6 4 5 5 7 8 10 8 7 7 8 5 6 5 5 6 7 6 5 5 4 6 6 5 4 4 3 2 2 2 2 3
2 5 4 3 0 5 6 6 7 6 8 7 8 9 9 7 10 8 6 5 6 6 5 7 7 10 8 7 6 5 6 5 5 4 6 6 5 6 6 6 6 6 4 4 4 3 2 3 3
2 0 5 2 4 4 4 7 7 6 1 8 10 9 8 8 6 5 6 7 7 5 7 7 7 8 7 7 6 6 5 6 5 5 6 7 5 6 6 6 6 5 5 5 5 4 4 4 3
4 6 7 5 4 5 2 10 3 2 3 5 7 4 5 5 5 6 7 6 7 7 7 8 8 9 9 7 6 7 6 6 7 7 7 6 7 6 7 6 6 6 7 6 5 7 6 5 5
Wind_Direction
339 324 347 38 68 67 116 206 286 103 88 300 87 129 116 58 129 180 84 90 107 101 105 101 102 102 95 84 71 58 48 42 41 41 39 43 48 53 49 46 27 39 45 45 46 47 50 53 57
348 326 34 73 91 87 247 285 133 120 132 127 72 74 62 81 82 113 101 113 107 109 105 102 106 108 96 85 71 59 54 41 41 47 44 50 55 60 58 38 39 38 41 46 50 52 53 55 53
338 17 72 89 103 151 164 174 133 114 118 42 97 43 87 95 137 130 136 121 108 103 102 109 110 103 98 89 77 63 54 54 45 52 53 52 55 62 58 45 39 34 37 42 54 54 54 54 54
330 7 35 80 120 209 146 128 122 117 90 60 109 81 44 319 163 147 135 121 110 106 109 112 107 106 101 93 80 67 60 56 52 53 54 59 61 63 62 52 40 31 37 44 56 52 58 65 64
346 63 62 76 101 102 61 93 137 90 86 49 74 126 94 49 111 123 124 120 125 111 110 106 105 103 99 96 87 73 59 58 57 57 61 72 73 62 47 44 42 41 46 51 60 59 62 66 57
21 89 77 150 162 113 86 147 119 107 107 86 93 117 102 110 114 112 112 114 119 116 106 98 98 101 100 95 87 76 70 64 70 65 60 60 62 56 36 36 36 50 52 58 63 64 67 71 62
142 92 140 135 143 125 133 113 97 121 117 113 49 111 116 141 110 121 110 110 108 100 98 94 90 97 97 92 83 72 74 66 64 55 50 55 53 61 52 40 38 48 61 68 64 72 78 78 60
121 95 99 111 174 150 22 79 93 89 139 282 310 148 168 162 119 101 96 94 93 100 106 110 104 96 88 75 73 65 74 72 71 66 55 45 44 49 50 38 48 46 49 77 78 75 82 62 60
128 70 133 163 158 150 143 126 37 105 105 74 23 343 110 127 121 108 108 101 105 118 123 115 104 109 102 92 67 57 56 71 66 53 47 38 31 32 34 36 43 51 56 72 85 80 73 64 64
123 83 159 190 121 126 108 97 130 115 102 91 113 99 113 133 141 138 145 147 152 166 158 129 136 143 117 102 90 69 62 55 55 53 47 49 36 21 38 26 39 38 47 70 88 82 72 65 52
356 99 156 44 71 103 118 85 57 127 227 196 166 146 140 152 152 145 158 167 181 165 158 159 154 147 126 117 105 77 65 50 49 44 43 35 35 16 24 31 32 21 33 41 69 69 56 63 61
95 76 45 26 8 55 88 106 76 359 281 282 143 141 149 171 169 157 167 177 161 163 154 149 147 143 137 127 120 124 99 71 55 23 29 39 28 30 31 32 40 47 26 58 76 77 72 77 78
76 91 54 66 66 60 76 49 150 346 347 104 123 147 159 171 169 144 144 146 165 163 161 161 157 154 146 133 133 122 104 84 46 33 20 30 35 20 12 26 54 61 56 66 86 91 85 85 90
90 88 92 41 67 57 103 116 38 193 200 106 138 159 173 185 183 151 160 170 186 170 176 160 169 149 147 147 153 138 133 124 79 47 24 23 30 21 24 15 55 54 70 86 114 126 113 94 86
101 78 61 24 22 46 333 287 227 165 161 160 179 195 198 214 187 193 192 185 184 181 168 170 150 150 157 151 147 141 148 110 78 52 27 21 25 34 39 24 26 27 30 71 84 93 109 102 86
64 58 82 348 16 357 45 269 39 173 155 192 217 216 232 248 220 211 201 175 163 147 182 160 157 158 155 150 147 144 131 109 93 68 41 19 19 41 54 57 39 6 11 59 74 105 104 100 101
25 107 95 4 45 10 79 279 36 168 186 213 217 231 242 255 251 237 191 188 176 173 170 191 174 162 154 147 134 143 131 118 101 71 46 22 21 40 77 64 28 51 54 76 111 77 120 113 102
154 109 32 318 348 29 312 270 273 192 195 224 224 225 226 233 236 213 212 210 202 204 202 188 186 159 147 138 120 106 99 94 98 115 84 36 11 14 57 53 47 69 100 90 110 124 117 117 114
112 99 101 284 338 253 252 280 276 231 218 230 232 231 232 231 220 194 204 201 205 222 214 203 180 166 151 150 150 141 190 173 161 104 107 64 14 360 83 96 65 47 111 125 130 111 124 117 121
83 96 34 335 303 209 318 274 264 212 222 217 220 224 233 239 210 202 194 196 201 206 213 212 210 178 177 176 160 152 161 158 157 170 124 101 44 325 199 165 148 142 138 130 157 165 134 138 172
47 107 132 209 299 71 318 294 298 289 254 277 251 244 238 232 235 223 201 201 194 208 207 205 208 192 184 179 141 94 88 103 152 207 197 169 101 281 203 172 170 155 135 153 170 193 198 162 191
80 284 152 148 71 275 27 287 299 320 298 249 252 233 241 228 230 219 207 204 199 208 186 201 208 202 190 172 177 181 187 185 184 163 175 160 147 264 249 174 158 147 148 155 175 186 197 162 167
140 108 79 74 86 21 7 69 272 338 323 335 325 253 254 244 231 228 213 213 211 175 190 191 201 202 194 187 194 196 216 190 113 135 179 157 216 249 247 194 175 167 166 157 171 171 180 165 153
136 96 48 50 67 32 305 112 290 288 286 325 317 295 304 296 252 241 229 185 186 171 181 189 193 207 198 197 198 206 215 171 158 171 189 179 204 261 275 241 218 199 176 161 163 161 165 169 162
76 63 345 1 14 224 102 133 252 274 273 260 283 301 333 333 321 265 206 194 180 189 187 179 189 221 210 215 220 219 214 189 192 187 184 170 180 218 223 199 208 220 203 191 182 154 145 157 151
108 133 144 252 279 279 122 235 252 225 281 270 286 292 313 333 334 296 228 201 196 199 188 193 200 220 204 211 234 238 233 206 201 189 183 185 190 184 184 188 193 192 180 184 130 36 75 107 117
178 163 167 95 52 28 246 291 286 330 353 7 9 18 352 344 345 322 262 220 215 212 205 204 199 217 215 218 220 234 240 218 198 193 187 177 172 175 181 183 181 167 176 160 112 69 60 101 100
145 161 65 9 350 285 288 271 238 309 324 347 359 356 343 343 338 336 303 256 237 230 217 212 209 217 215 210 208 219 224 226 216 187 197 190 181 176 174 181 171 167 170 157 139 131 144 124 114
63 105 54 125 157 213 285 260 222 219 294 346 339 349 346 342 349 335 299 277 263 241 218 217 212 215 213 207 206 216 223 223 210 201 203 194 175 176 178 183 178 169 163 164 149 157 169 147 145
159 180 164 159 226 232 245 261 222 286 343 296 337 339 252 248 274 269 254 260 266 251 237 231 223 216 214 203 196 208 207 202 204 205 202 179 188 183 176 176 175 174 162 167 173 174 169 164 174